Location: Paddlesworth
(51.1000°N, 1.1333°E)
Time: 04:45:01
(UTC+00:00)

Cosmos 1777 Rocket - Pass Details

Date: 11 May 2021
Orbit: 758 x 776 km, 74.0° (Epoch: 14 June)

Event Time Altitude Azimuth Distance (km) Brightness Sun altitude
Rises 20:44:58 0° 187° (S) 3,205 6.9 -9.6°
Reaches altitude 10° 20:47:22 10° 183° (S) 2,283 6.1 -9.9°
Maximum altitude 20:52:23 53° 108° (ESE) 929 4.1 -10.4°
Drops below altitude 10° 20:57:27 10° 32° (NNE) 2,301 6.7 -11.0°
Sets 20:59:52 0° 28° (NNE) 3,232 7.5 -11.2°
